Copper Harbor, MI

4:11 AM EDT on May 21, 2018 (GMT -0400)
Copper Harbor

Weather History for KP59 - October, 2012

Change the Weather History Date:

Tuesday, October 16, 2012

  Actual Average Record
Temperature  
Mean Temperature 44 °F -  
Max Temperature 52 °F 48 °F 61 °F (1998)
Min Temperature 37 °F 36 °F 32 °F (2003)
Degree Days  
Heating Degree Days 21    
Moisture  
Dew Point 43 °F    
Average Humidity 88    
Maximum Humidity 93    
Minimum Humidity 76    
Precipitation  
Precipitation 0.46 in - - ()
Sea Level Pressure  
Sea Level Pressure 29.66 in    
Wind  
Wind Speed 5 mph (SW)    
Max Wind Speed 16 mph    
Max Gust Speed 31 mph    
Averages and records for this station are not official NWS values.
T = Trace of Precipitation, MM = Missing Value Source: NWS Daily Summary

Daily Weather History Graph

Daily Weather History Graph

Search for Another Location

Airport or City:

Astronomy

Oct. 16, 2012 Rise Set
Actual Time 8:12 AM EDT 7:00 PM EDT
Civil Twilight 7:41 AM EDT 7:31 PM EDT
Nautical Twilight 7:05 AM EDT 8:07 PM EDT
Astronomical Twilight 6:30 AM EDT 8:42 PM EDT
Moon 9:43 AM EDT (10/16) 7:34 PM EDT (10/16)
Length of Visible Light 11h 50m
Length of Day
10h 48m
New Moon, 2% of the Moon is Illuminated
Oct 16
New Moon
Oct 21
First Quarter
Oct 29
Full
Nov 6
Last Quarter
Nov 13
New

Hourly Weather History & Observations

Time (EDT) Temp. Windchill Dew Point Humidity Pressure Visibility Wind Dir Wind Speed Gust Speed Precip Events Conditions
12:51 AM 37.0 °F - 32.0 °F 82% 29.88 in - Calm Calm - N/A   Unknown
1:51 AM 37.9 °F - 35.1 °F 89% 29.88 in - Calm Calm - N/A   Unknown
2:51 AM 42.1 °F - 37.0 °F 82% 29.86 in - Calm Calm - N/A   Unknown
3:51 AM 45.0 °F 41.2 °F 37.9 °F 76% 29.83 in - Variable 6.9 mph - N/A   Unknown
4:51 AM 45.0 °F 40.1 °F 37.9 °F 76% 29.80 in - SW 9.2 mph - N/A   Unknown
5:51 AM 44.1 °F 40.1 °F 39.0 °F 82% 29.78 in - SW 6.9 mph 16.1 mph 0.01 in   Unknown
6:51 AM 44.1 °F 39.5 °F 41.0 °F 89% 29.77 in - WSW 8.1 mph - N/A   Unknown
7:51 AM 44.1 °F 38.6 °F 42.1 °F 93% 29.74 in - SW 10.4 mph - 0.03 in   Unknown
8:51 AM 45.0 °F 42.6 °F 43.0 °F 93% 29.73 in - Variable 4.6 mph - 0.04 in   Unknown
9:51 AM 46.9 °F - 45.0 °F 93% 29.70 in - SW 9.2 mph 20.7 mph 0.08 in   Unknown
10:51 AM 46.9 °F - 45.0 °F 93% 29.68 in - SW 11.5 mph 20.7 mph 0.05 in   Unknown
11:51 AM 46.9 °F - 45.0 °F 93% 29.65 in - SW 16.1 mph 31.1 mph 0.10 in   Unknown
12:51 PM 46.9 °F - 45.0 °F 93% 29.64 in - SW 9.2 mph 18.4 mph 0.10 in   Unknown
1:51 PM 48.0 °F - 46.0 °F 93% 29.61 in - SW 10.4 mph 18.4 mph 0.04 in   Unknown
2:51 PM 50.0 °F - 46.9 °F 89% 29.58 in - SW 8.1 mph - 0.01 in   Unknown
3:51 PM 51.1 °F - 48.0 °F 89% 29.56 in - Variable 4.6 mph - N/A   Unknown
4:51 PM 51.1 °F - 46.9 °F 86% 29.54 in - WSW 5.8 mph - N/A   Unknown
5:51 PM 51.1 °F - 46.9 °F 86% 29.52 in - Variable 3.5 mph - N/A   Unknown
6:51 PM 50.0 °F - 46.9 °F 89% 29.52 in - SW 5.8 mph - N/A   Unknown
7:51 PM 48.9 °F - 46.0 °F 90% 29.51 in - SW 8.1 mph - N/A   Unknown
8:51 PM 50.0 °F - 46.9 °F 89% 29.50 in - SW 9.2 mph - N/A   Unknown
9:51 PM 50.0 °F - 48.0 °F 93% 29.50 in - SW 10.4 mph 17.3 mph N/A   Unknown
10:51 PM 51.1 °F - 48.0 °F 89% 29.51 in - SW 8.1 mph 17.3 mph N/A   Unknown
11:51 PM 51.1 °F - 46.9 °F 86% 29.50 in - SW 6.9 mph - N/A   Unknown